Weather History for Winchester, TN

Change the Weather History Date:

Friday, December 21, 2012

  Actual Average (KTHA) Record (KTHA)
Temperature  
Mean Temperature 34 °F -  
Max Temperature 41 °F 49 °F 71 °F (2013)
Min Temperature 28 °F 32 °F 28 °F (2012)
Degree Days  
Heating Degree Days 30    
Moisture  
Dew Point 18 °F    
Average Humidity 52    
Maximum Humidity 69    
Minimum Humidity 36    
Precipitation  
Precipitation 0.00 in - - ()
Sea Level Pressure  
Sea Level Pressure 30.10 in    
Wind  
Wind Speed 13 mph (WNW)    
Max Wind Speed 20 mph    
Max Gust Speed 25 mph    
Visibility 10 miles    
Events      
Averages and records for this station are not official NWS values.
T = Trace of Precipitation, MM = Missing Value Source: NWS Daily Summary

Daily Weather History Graph

Daily Weather History Graph

Search for Another Location

Airport:

Trip Planner

Search our weather history database for the weather conditions in past years. The results will help you decide how hot, cold, wet, or windy it might be!

Date:

Astronomy

Dec. 21, 2012 Rise Set
Actual Time 7:49 AM EST 5:36 PM EST
Civil Twilight 7:20 AM EST 6:04 PM EST
Nautical Twilight 6:49 AM EST 6:36 PM EST
Astronomical Twilight 6:18 AM EST 7:07 PM EST
Moon 1:14 PM EST (12/21) 1:44 AM EST (12/21)
Length of Visible Light 10h 43m
Length of Day
9h 47m
Waxing Gibbous, 64% of the Moon is Illuminated
Dec 21
Waxing Gibbous
Dec 28
Full
Jan 4
Last Quarter
Jan 11
New
Jan 18
First Quarter

Hourly Weather History & Observations

Time (EST) Temp. Windchill Dew Point Humidity Pressure Visibility Wind Dir Wind Speed Gust Speed Precip Events Conditions
12:15 AM 35.6 °F 24.8 °F 21.2 °F 56% 29.94 in 10.0 mi West 19.6 mph - N/A   Mostly Cloudy
12:35 AM 35.6 °F 25.9 °F 21.2 °F 56% 29.94 in 10.0 mi West 16.1 mph - N/A   Overcast
12:55 AM 35.6 °F 26.2 °F 21.2 °F 56% 29.95 in 10.0 mi West 15.0 mph - N/A   Overcast
1:35 AM 33.8 °F 23.5 °F 21.2 °F 60% 29.94 in 10.0 mi West 16.1 mph - N/A   Overcast
1:55 AM 33.8 °F 25.3 °F 21.2 °F 60% 29.95 in 10.0 mi West 11.5 mph - N/A   Overcast
2:15 AM 33.8 °F 25.3 °F 21.2 °F 60% 29.96 in 10.0 mi West 11.5 mph - N/A   Overcast
2:35 AM 33.8 °F 24.3 °F 21.2 °F 60% 29.97 in 10.0 mi West 13.8 mph - N/A   Overcast
2:55 AM 33.8 °F 25.3 °F 21.2 °F 60% 29.96 in 10.0 mi West 11.5 mph - N/A   Overcast
3:15 AM 33.8 °F 27.0 °F 21.2 °F 60% 29.98 in 10.0 mi West 8.1 mph - N/A   Overcast
3:35 AM 32.0 °F 22.5 °F 19.4 °F 60% 29.98 in 10.0 mi West 12.7 mph - N/A   Mostly Cloudy
3:55 AM 30.2 °F 19.8 °F 19.4 °F 64% 29.98 in 10.0 mi West 13.8 mph - N/A   Scattered Clouds
4:15 AM 30.2 °F 21.3 °F 19.4 °F 64% 29.98 in 10.0 mi West 10.4 mph - N/A   Clear
4:35 AM 30.2 °F 21.3 °F 19.4 °F 64% 29.98 in 10.0 mi West 10.4 mph - N/A   Clear
4:55 AM 30.2 °F 21.3 °F 19.4 °F 64% 29.99 in 10.0 mi West 10.4 mph - N/A   Partly Cloudy
5:15 AM 30.2 °F 22.6 °F 17.6 °F 60% 29.99 in 10.0 mi West 8.1 mph - N/A   Partly Cloudy
5:35 AM 30.2 °F 21.9 °F 17.6 °F 60% 30.00 in 10.0 mi West 9.2 mph - N/A   Scattered Clouds
5:55 AM 30.2 °F 21.9 °F 17.6 °F 60% 30.01 in 10.0 mi West 9.2 mph - N/A   Mostly Cloudy
6:15 AM 30.2 °F 21.9 °F 19.4 °F 64% 30.02 in 10.0 mi West 9.2 mph - N/A   Overcast
6:35 AM 30.2 °F 20.8 °F 17.6 °F 60% 30.02 in 10.0 mi West 11.5 mph - N/A   Mostly Cloudy
7:15 AM 28.4 °F 20.4 °F 17.6 °F 64% 30.03 in 10.0 mi West 8.1 mph - N/A   Mostly Cloudy
7:35 AM 28.4 °F 18.5 °F 19.4 °F 69% 30.05 in 10.0 mi West 11.5 mph - N/A   Scattered Clouds
7:55 AM 28.4 °F 20.4 °F 19.4 °F 69% 30.05 in 10.0 mi West 8.1 mph - N/A   Clear
8:15 AM 28.4 °F 20.4 °F 17.6 °F 64% 30.06 in 10.0 mi West 8.1 mph - N/A   Clear
8:35 AM 28.4 °F 21.2 °F 19.4 °F 69% 30.07 in 10.0 mi West 6.9 mph - N/A   Partly Cloudy
8:55 AM 28.4 °F 19.1 °F 19.4 °F 69% 30.08 in 10.0 mi West 10.4 mph - N/A   Clear
9:15 AM 30.2 °F 20.8 °F 19.4 °F 64% 30.10 in 10.0 mi West 11.5 mph - N/A   Partly Cloudy
9:35 AM 32.0 °F 23.0 °F 19.4 °F 60% 30.10 in 10.0 mi West 11.5 mph - N/A   Partly Cloudy
9:55 AM 32.0 °F 22.1 °F 19.4 °F 60% 30.10 in 10.0 mi West 13.8 mph - N/A   Clear
10:15 AM 33.8 °F 25.8 °F 19.4 °F 56% 30.11 in 10.0 mi WNW 10.4 mph - N/A   Clear
10:35 AM 33.8 °F 23.9 °F 17.6 °F 52% 30.11 in 10.0 mi West 15.0 mph - N/A   Clear
10:55 AM 35.6 °F 27.1 °F 19.4 °F 52% 30.12 in 10.0 mi WNW 12.7 mph 25.3 mph N/A   Clear
11:15 AM 35.6 °F 27.1 °F 17.6 °F 48% 30.12 in 10.0 mi WNW 12.7 mph - N/A   Clear
11:35 AM 35.6 °F 27.5 °F 17.6 °F 48% 30.12 in 10.0 mi WNW 11.5 mph - N/A   Clear
11:55 AM 35.6 °F 26.2 °F 19.4 °F 52% 30.12 in 10.0 mi WNW 15.0 mph - N/A   Clear
12:15 PM 37.4 °F 28.9 °F 19.4 °F 48% 30.11 in 10.0 mi WNW 13.8 mph - N/A   Clear
12:35 PM 37.4 °F 28.9 °F 19.4 °F 48% 30.11 in 10.0 mi West 13.8 mph - N/A   Clear
12:55 PM 37.4 °F 27.8 °F 19.4 °F 48% 30.10 in 10.0 mi West 17.3 mph - N/A   Clear
1:15 PM 39.2 °F 31.2 °F 19.4 °F 45% 30.10 in 10.0 mi WNW 13.8 mph - N/A   Clear
1:35 PM 39.2 °F 32.5 °F 17.6 °F 42% 30.10 in 10.0 mi WNW 10.4 mph - N/A   Clear
1:55 PM 39.2 °F 30.5 °F 17.6 °F 42% 30.10 in 10.0 mi NW 16.1 mph - N/A   Clear
2:15 PM 39.2 °F 31.2 °F 17.6 °F 42% 30.09 in 10.0 mi NW 13.8 mph - N/A   Clear
2:35 PM 41.0 °F 33.5 °F 17.6 °F 39% 30.09 in 10.0 mi NW 13.8 mph - N/A   Clear
2:55 PM 41.0 °F 33.1 °F 15.8 °F 36% 30.10 in 10.0 mi WNW 15.0 mph - N/A   Clear
3:15 PM 39.2 °F 30.8 °F 15.8 °F 39% 30.11 in 10.0 mi NW 15.0 mph - N/A   Clear
3:35 PM 41.0 °F 33.9 °F 15.8 °F 36% 30.12 in 10.0 mi WNW 12.7 mph - N/A   Clear
3:55 PM 41.0 °F 32.8 °F 15.8 °F 36% 30.10 in 10.0 mi NW 16.1 mph - N/A   Clear
4:15 PM 41.0 °F 33.1 °F 15.8 °F 36% 30.11 in 10.0 mi NW 15.0 mph - N/A   Clear
4:35 PM 39.2 °F 31.2 °F 15.8 °F 39% 30.12 in 10.0 mi West 13.8 mph - N/A   Clear
4:55 PM 39.2 °F 31.6 °F 15.8 °F 39% 30.13 in 10.0 mi NW 12.7 mph - N/A   Clear
5:15 PM 39.2 °F 30.5 °F 15.8 °F 39% 30.13 in 10.0 mi WNW 16.1 mph - N/A   Clear
5:35 PM 37.4 °F 30.8 °F 15.8 °F 41% 30.14 in 10.0 mi NW 9.2 mph - N/A   Clear
5:55 PM 37.4 °F 31.4 °F 15.8 °F 41% 30.15 in 10.0 mi NW 8.1 mph - N/A   Clear
6:15 PM 37.4 °F 29.3 °F 15.8 °F 41% 30.16 in 10.0 mi WNW 12.7 mph - N/A   Clear
6:35 PM 37.4 °F 30.3 °F 15.8 °F 41% 30.18 in 10.0 mi WNW 10.4 mph - N/A   Clear
6:55 PM 37.4 °F 30.3 °F 15.8 °F 41% 30.19 in 10.0 mi WNW 10.4 mph - N/A   Clear
7:15 PM 35.6 °F 30.7 °F 15.8 °F 44% 30.20 in 10.0 mi West 5.8 mph - N/A   Clear
7:35 PM 35.6 °F 27.1 °F 15.8 °F 44% 30.21 in 10.0 mi WNW 12.7 mph - N/A   Clear
7:55 PM 35.6 °F 28.6 °F 15.8 °F 44% 30.22 in 10.0 mi WNW 9.2 mph - N/A   Clear
8:15 PM 35.6 °F 27.5 °F 15.8 °F 44% 30.22 in 10.0 mi WNW 11.5 mph - N/A   Clear
8:35 PM 33.8 °F 26.4 °F 15.8 °F 48% 30.22 in 10.0 mi WNW 9.2 mph - N/A   Clear
8:55 PM 33.8 °F 26.4 °F 15.8 °F 48% 30.22 in 10.0 mi NW 9.2 mph - N/A   Clear
9:15 PM 33.8 °F 27.7 °F 15.8 °F 48% 30.23 in 10.0 mi WNW 6.9 mph - N/A   Clear
9:35 PM 33.8 °F 27.0 °F 15.8 °F 48% 30.23 in 10.0 mi WNW 8.1 mph - N/A   Clear
9:55 PM 33.8 °F 27.0 °F 15.8 °F 48% 30.23 in 10.0 mi WNW 8.1 mph - N/A   Clear
10:15 PM 33.8 °F 26.4 °F 15.8 °F 48% 30.24 in 10.0 mi NW 9.2 mph - N/A   Clear
10:35 PM 33.8 °F 27.0 °F 15.8 °F 48% 30.24 in 10.0 mi NW 8.1 mph - N/A   Clear
10:55 PM 32.0 °F 24.8 °F 15.8 °F 51% 30.25 in 10.0 mi WNW 8.1 mph - N/A   Clear
11:15 PM 32.0 °F 24.8 °F 15.8 °F 51% 30.25 in 10.0 mi WNW 8.1 mph - N/A   Clear
11:35 PM 30.2 °F 21.3 °F 15.8 °F 55% 30.24 in 10.0 mi NW 10.4 mph - N/A   Clear
11:55 PM 32.0 °F 26.4 °F 15.8 °F 51% 30.25 in 10.0 mi WNW 5.8 mph - N/A   Clear